DucheSS Of Scandinavia — OUZI2 — position and weather

sailwx.info

Track history (hours):
 
Tides and Currents Weather Stations Pressure Air Temp Water Temp Dewpoint Dewpoint Depression Visibility Wind Speed Wind Dir Waves Ship Positions

DucheSS Of Scandinavia

Operator: DFDS A/S

Last reported at 2017-Nov-23 19:00 UTC. Time now 2017-Nov-23 20:55 UTC.
Position N 59°00' E 010°38'.

Length 134 m; draft 5.4 m.

Type: Passenger vessel. MMSI: 219002929.

Date/timePositionNaut miles runAvg speedWind from/ knotsBaromVisibWave heightAir tempDewpointWater temp
2017-Nov-23 19:00N 59°00' E 010°38'4 8.6
2017-Nov-23 18:30N 59°02' E 010°46'713.7
2017-Nov-23 18:01N 58°60' E 010°58'714.3
2017-Nov-23 17:31N 58°56' E 011°10'0 0.0
2017-Nov-23 17:00N 58°56' E 011°10'612.4
2017-Nov-23 16:31N 58°59' E 010°60'815.5
2017-Nov-23 16:01N 59°02' E 010°46'815.5
2017-Nov-23 15:30N 58°59' E 010°32'714.6
2017-Nov-23 15:00N 59°01' E 010°18'713.8
2017-Nov-23 14:31N 59°07' E 010°14'1 1.0
2017-Nov-23 14:01N 59°08' E 010°14'5 9.3
2017-Nov-23 13:31N 59°03' E 010°15'611.9
2017-Nov-23 13:00N 58°60' E 010°25'5 9.6
2017-Nov-23 12:30N 58°59' E 010°34'5 9.4
2017-Nov-23 12:00N 59°01' E 010°42'612.5
2017-Nov-23 11:30N 59°01' E 010°54'816.8
2017-Nov-23 11:01N 58°56' E 011°08'1 2.6
2017-Nov-23 10:31N 58°56' E 011°10'0 0.2
2017-Nov-23 10:01N 58°56' E 011°10'612.1
2017-Nov-23 09:31N 58°59' E 010°60'815.2
2017-Nov-23 09:00N 59°02' E 010°46'816.1
2017-Nov-23 08:31N 58°59' E 010°32'815.2
2017-Nov-23 08:01N 59°01' E 010°18'713.4
2017-Nov-23 07:30N 59°07' E 010°14'0 0.6
2017-Nov-23 07:01N 59°08' E 010°14'1 1.2
2017-Nov-23 06:31N 59°07' E 010°14'1 1.6
2017-Nov-23 05:58N 59°06' E 010°14'0 0.0
2017-Nov-23 05:29N 59°06' E 010°14'0 0.0
2017-Nov-23 04:59N 59°06' E 010°14'0 0.0
2017-Nov-23 04:29N 59°06' E 010°14'0 0.0
2017-Nov-23 04:00N 59°06' E 010°14'0 0.0
2017-Nov-23 03:30N 59°06' E 010°14'0 0.0
2017-Nov-23 03:00N 59°06' E 010°14'0 0.0
2017-Nov-23 02:28N 59°06' E 010°14'0 0.0
2017-Nov-23 01:58N 59°06' E 010°14'0 0.0
2017-Nov-23 01:28N 59°06' E 010°14'0 0.0
2017-Nov-23 00:59N 59°06' E 010°14'0 0.0
2017-Nov-23 00:29N 59°06' E 010°14'0 0.0
2017-Nov-22 23:59N 59°06' E 010°14'0 0.0
2017-Nov-22 23:30N 59°06' E 010°14'0 0.0
2017-Nov-22 23:00N 59°06' E 010°14'0 0.0
2017-Nov-22 22:30N 59°06' E 010°14'0 0.0
2017-Nov-22 21:58N 59°06' E 010°14'0 0.0
2017-Nov-22 21:28N 59°06' E 010°14'0 0.0
2017-Nov-22 20:58N 59°06' E 010°14'0 0.3
2017-Nov-22 20:31N 59°06' E 010°14'1 2.6
2017-Nov-22 20:01N 59°08' E 010°14'4 7.9
2017-Nov-22 19:31N 59°04' E 010°15'  
2017-Nov-20 00:29N 59°06' E 010°14'0 0.0
2017-Nov-20 00:00N 59°06' E 010°14'0 0.0
2017-Nov-19 23:30N 59°06' E 010°14'0 0.0
2017-Nov-19 23:00N 59°06' E 010°14'0 0.0
2017-Nov-19 22:28N 59°06' E 010°14'0 0.0
2017-Nov-19 21:58N 59°06' E 010°14'0 0.0
2017-Nov-19 21:28N 59°06' E 010°14'0 0.0
2017-Nov-19 21:00N 59°06' E 010°14'0 0.6
2017-Nov-19 20:31N 59°06' E 010°14'1 2.2
2017-Nov-19 20:01N 59°08' E 010°14'4 8.2
2017-Nov-19 19:31N 59°04' E 010°15'714.3
2017-Nov-19 19:01N 59°01' E 010°28'815.9
2017-Nov-19 18:31N 59°01' E 010°43'816.0
2017-Nov-19 18:01N 58°60' E 010°58'713.9
2017-Nov-19 17:30N 58°56' E 011°09'0 0.8
2017-Nov-19 17:01N 58°56' E 011°10'2 4.7
2017-Nov-19 16:31N 58°56' E 011°06'815.7
2017-Nov-19 16:00N 59°01' E 010°53'815.5
2017-Nov-19 15:31N 59°01' E 010°38'815.7
2017-Nov-19 15:01N 59°01' E 010°23'713.7
2017-Nov-19 14:30N 59°06' E 010°14'2 3.8
2017-Nov-19 14:01N 59°08' E 010°14'0 0.0
2017-Nov-19 13:30N 59°08' E 010°14'5 9.6
2017-Nov-19 13:01N 59°03' E 010°15'714.3
2017-Nov-19 12:31N 59°00' E 010°28'714.9
2017-Nov-19 12:01N 59°01' E 010°43'815.3
2017-Nov-19 11:31N 58°60' E 010°57'714.7
2017-Nov-19 11:01N 58°56' E 011°09'0 0.9
2017-Nov-19 10:30N 58°56' E 011°10'0 0.3
2017-Nov-19 10:01N 58°56' E 011°10'713.6
2017-Nov-19 09:31N 58°60' E 010°59'815.9
2017-Nov-19 09:01N 59°02' E 010°44'815.9
2017-Nov-19 08:31N 59°00' E 010°28'714.7
2017-Nov-19 08:01N 59°03' E 010°15'5 9.1
2017-Nov-19 07:30N 59°08' E 010°14'0 0.0
2017-Nov-19 07:01N 59°08' E 010°14'1 2.7
2017-Nov-19 06:31N 59°06' E 010°14'0 0.2
2017-Nov-19 06:00N 59°06' E 010°14'0 0.0
2017-Nov-19 05:30N 59°06' E 010°14'0 0.0
2017-Nov-19 05:00N 59°06' E 010°14'0 0.0
2017-Nov-19 04:28N 59°06' E 010°14'0 0.0
2017-Nov-19 03:58N 59°06' E 010°14'0 0.0
2017-Nov-19 03:28N 59°06' E 010°14'0 0.0
2017-Nov-19 02:59N 59°06' E 010°14'0 0.0
2017-Nov-19 02:29N 59°06' E 010°14'0 0.0
2017-Nov-19 01:59N 59°06' E 010°14'0 0.0
2017-Nov-19 01:30N 59°06' E 010°14'0 0.0
2017-Nov-19 01:00N 59°06' E 010°14'0 0.0
2017-Nov-19 00:30N 59°06' E 010°14'0 0.0
2017-Nov-18 23:58N 59°06' E 010°14'0 0.0
2017-Nov-18 23:28N 59°06' E 010°14'0 0.0
2017-Nov-18 22:58N 59°06' E 010°14'0 0.0
2017-Nov-18 22:29N 59°06' E 010°14'0 0.0
2017-Nov-18 21:59N 59°06' E 010°14'0 0.0
2017-Nov-18 21:29N 59°06' E 010°14'0 0.0
2017-Nov-18 21:00N 59°06' E 010°14'1 2.6
2017-Nov-18 20:30N 59°07' E 010°14'0 0.1
2017-Nov-18 20:01N 59°08' E 010°14'611.5
2017-Nov-18 19:31N 59°02' E 010°16'815.2
2017-Nov-18 19:00N 58°60' E 010°30'815.3
2017-Nov-18 18:30N 59°01' E 010°44'815.8
2017-Nov-18 18:01N 58°60' E 010°59'713.5
2017-Nov-18 17:31N 58°56' E 011°10'0 0.1
2017-Nov-18 17:01N 58°56' E 011°10'2 5.0
2017-Nov-18 16:30N 58°56' E 011°05'815.8
2017-Nov-18 16:00N 59°01' E 010°53'815.7
2017-Nov-18 15:31N 59°01' E 010°38'816.1
2017-Nov-18 15:01N 59°01' E 010°22'713.5
2017-Nov-18 14:30N 59°06' E 010°14'1 2.8
2017-Nov-18 14:01N 59°08' E 010°14'0 0.0
2017-Nov-18 13:30N 59°08' E 010°14'5 9.9
2017-Nov-18 13:01N 59°03' E 010°15'714.2
2017-Nov-18 12:31N 59°00' E 010°28'714.9
2017-Nov-18 12:01N 59°02' E 010°42'714.9
2017-Nov-18 11:31N 59°00' E 010°57'815.0
2017-Nov-18 11:01N 58°56' E 011°08'1 1.9
2017-Nov-18 10:31N 58°56' E 011°10'0 0.0
2017-Nov-18 10:01N 58°56' E 011°10'612.2
2017-Nov-18 09:31N 58°59' E 010°60'815.9
2017-Nov-18 09:00N 59°02' E 010°45'816.3
2017-Nov-18 08:30N 59°01' E 010°30'815.3
2017-Nov-18 08:01N 59°03' E 010°15'510.0
2017-Nov-18 07:30N 59°08' E 010°14'0 0.0
2017-Nov-18 07:01N 59°08' E 010°14'0 0.9
2017-Nov-18 06:30N 59°07' E 010°14'1 1.9
2017-Nov-18 05:59N 59°06' E 010°14'0 0.0
2017-Nov-18 05:29N 59°06' E 010°14'0 0.0
2017-Nov-18 05:00N 59°06' E 010°14'0 0.0
2017-Nov-18 04:30N 59°06' E 010°14'0 0.0
2017-Nov-18 04:00N 59°06' E 010°14'0 0.0
2017-Nov-18 03:28N 59°06' E 010°14'0 0.0
2017-Nov-18 02:58N 59°06' E 010°14'0 0.0
2017-Nov-18 02:29N 59°06' E 010°14'0 0.0
2017-Nov-18 01:59N 59°06' E 010°14'0 0.0
2017-Nov-18 01:29N 59°06' E 010°14'0 0.0
2017-Nov-18 01:00N 59°06' E 010°14'0 0.0
2017-Nov-18 00:30N 59°06' E 010°14'0 0.0
2017-Nov-18 00:00N 59°06' E 010°14'0 0.0
2017-Nov-17 23:30N 59°06' E 010°14'0 0.0
2017-Nov-17 22:58N 59°06' E 010°14'0 0.0
2017-Nov-17 22:28N 59°06' E 010°14'0 0.0
2017-Nov-17 22:00N 59°06' E 010°14'0 0.0
2017-Nov-17 21:31N 59°06' E 010°14'0 0.0
2017-Nov-17 21:01N 59°06' E 010°14'1 2.9
2017-Nov-17 20:31N 59°08' E 010°14'3 5.9
2017-Nov-17 20:01N 59°05' E 010°15'713.6
2017-Nov-17 19:30N 58°60' E 010°24'510.3
2017-Nov-17 19:00N 58°59' E 010°34'510.7
2017-Nov-17 18:31N 59°01' E 010°44'713.5
2017-Nov-17 18:01N 59°00' E 010°57'815.2
2017-Nov-17 17:31N 58°56' E 011°09'1 1.7
2017-Nov-17 17:01N 58°56' E 011°10'4 7.4
2017-Nov-17 16:30N 58°57' E 011°03'816.5
2017-Nov-17 16:01N 59°01' E 010°50'816.0
2017-Nov-17 15:31N 58°59' E 010°35'816.5
2017-Nov-17 15:00N 59°01' E 010°19'713.9
2017-Nov-17 14:30N 59°07' E 010°14'0 0.9
2017-Nov-17 14:00N 59°08' E 010°14'2 3.5
2017-Nov-17 13:31N 59°06' E 010°14'713.9
2017-Nov-17 13:00N 59°00' E 010°22'611.7
2017-Nov-17 12:30N 58°60' E 010°33'611.1
2017-Nov-17 12:01N 59°01' E 010°44'713.3
2017-Nov-17 11:31N 59°00' E 010°56'815.8
2017-Nov-17 11:01N 58°56' E 011°09'1 1.6
2017-Nov-17 10:30N 58°56' E 011°10'0 0.0
2017-Nov-17 10:01N 58°56' E 011°10'510.0
2017-Nov-17 09:31N 58°58' E 011°02'815.9
2017-Nov-17 09:01N 59°02' E 010°48'816.3
2017-Nov-17 08:30N 59°00' E 010°32'816.2
2017-Nov-17 08:01N 59°01' E 010°17'612.3
2017-Nov-17 07:30N 59°07' E 010°14'0 0.2
2017-Nov-17 07:01N 59°08' E 010°14'1 2.6
2017-Nov-17 06:30N 59°06' E 010°14'0 0.3
2017-Nov-17 06:00N 59°06' E 010°14'0 0.0
2017-Nov-17 05:28N 59°06' E 010°14'0 0.0
2017-Nov-17 04:58N 59°06' E 010°14'0 0.0
2017-Nov-17 04:28N 59°06' E 010°14'0 0.0
2017-Nov-17 03:59N 59°06' E 010°14'0 0.0
2017-Nov-17 03:29N 59°06' E 010°14'0 0.0
2017-Nov-17 02:59N 59°06' E 010°14'0 0.0
2017-Nov-17 02:30N 59°06' E 010°14'0 0.0
2017-Nov-17 02:00N 59°06' E 010°14'0 0.0
2017-Nov-17 01:30N 59°06' E 010°14'0 0.0
2017-Nov-17 00:58N 59°06' E 010°14'0 0.0
2017-Nov-17 00:28N 59°06' E 010°14'0 0.0
2017-Nov-16 23:58N 59°06' E 010°14'0 0.0
2017-Nov-16 23:29N 59°06' E 010°14'0 0.0
2017-Nov-16 22:59N 59°06' E 010°14'0 0.0
2017-Nov-16 22:29N 59°06' E 010°14'0 0.0
2017-Nov-16 22:00N 59°06' E 010°14'0 0.0
2017-Nov-16 21:30N 59°06' E 010°14'0 0.0
2017-Nov-16 21:00N 59°06' E 010°14'1 2.9
2017-Nov-16 20:30N 59°08' E 010°14'1 1.7
2017-Nov-16 20:01N 59°07' E 010°14'713.7
2017-Nov-16 19:31N 59°00' E 010°19'612.9
2017-Nov-16 19:01N 58°59' E 010°31'612.2
2017-Nov-16 18:31N 59°01' E 010°42'714.8
2017-Nov-16 18:01N 59°00' E 010°57'815.3
2017-Nov-16 17:31N 58°56' E 011°09'1 1.5
2017-Nov-16 17:01N 58°56' E 011°10'2 4.7
2017-Nov-16 16:31N 58°56' E 011°06'714.0
2017-Nov-16 16:01N 59°00' E 010°55'815.9
2017-Nov-16 15:30N 59°01' E 010°39'917.1
2017-Nov-16 15:01N 59°01' E 010°23'713.5
2017-Nov-16 14:30N 59°06' E 010°14'2 3.4
2017-Nov-16 14:01N 59°08' E 010°14'0 0.0
2017-Nov-16 13:30N 59°08' E 010°14'510.7
2017-Nov-16 13:01N 59°02' E 010°15'714.6
2017-Nov-16 12:30N 59°01' E 010°29'714.4
2017-Nov-16 12:01N 59°02' E 010°43'714.5
2017-Nov-16 11:30N 59°00' E 010°57'815.3
2017-Nov-16 11:01N 58°56' E 011°09'0 0.9
2017-Nov-16 10:31N 58°56' E 011°10'0 0.0
2017-Nov-16 10:01N 58°56' E 011°10'510.9
2017-Nov-16 09:30N 58°59' E 011°01'714.6
2017-Nov-16 09:01N 59°02' E 010°48'815.3
2017-Nov-16 08:31N 59°01' E 010°33'815.1
2017-Nov-16 08:01N 59°01' E 010°19'612.7
2017-Nov-16 07:30N 59°07' E 010°14'1 1.1
2017-Nov-16 07:01N 59°08' E 010°14'1 1.9
2017-Nov-16 06:30N 59°07' E 010°14'1 1.0
2017-Nov-16 05:59N 59°06' E 010°14'0 0.0
2017-Nov-16 05:30N 59°06' E 010°14'0 0.0
2017-Nov-16 05:00N 59°06' E 010°14'0 0.0
2017-Nov-16 04:30N 59°06' E 010°14'0 0.0
2017-Nov-16 03:58N 59°06' E 010°14'0 0.0
2017-Nov-16 03:28N 59°06' E 010°14'0 0.0
2017-Nov-16 02:58N 59°06' E 010°14'0 0.0
2017-Nov-16 02:29N 59°06' E 010°14'0 0.0
2017-Nov-16 01:59N 59°06' E 010°14'0 0.0
2017-Nov-16 01:29N 59°06' E 010°14'0 0.0
2017-Nov-16 01:00N 59°06' E 010°14'0 0.0
2017-Nov-16 00:30N 59°06' E 010°14'0 0.0
2017-Nov-16 00:00N 59°06' E 010°14'0 0.0
2017-Nov-15 23:31N 59°06' E 010°14'0 0.0
2017-Nov-15 23:00N 59°06' E 010°14'0 0.0
2017-Nov-15 22:31N 59°06' E 010°14'0 0.0
2017-Nov-15 22:01N 59°06' E 010°14'0 0.0
2017-Nov-15 21:31N 59°06' E 010°14'0 0.0
2017-Nov-15 21:01N 59°06' E 010°14'0 0.0
2017-Nov-15 20:30N 59°06' E 010°14'1 2.8
2017-Nov-15 20:00N 59°08' E 010°14'4 7.9
2017-Nov-15 19:30N 59°04' E 010°15'714.3
2017-Nov-15 19:01N 59°01' E 010°28'816.0
2017-Nov-15 18:30N 59°01' E 010°43'815.2
2017-Nov-15 18:01N 59°00' E 010°57'714.5
2017-Nov-15 17:31N 58°56' E 011°09'1 1.6
2017-Nov-15 17:01N 58°56' E 011°10'3 5.3
2017-Nov-15 16:31N 58°56' E 011°05'815.9
2017-Nov-15 16:01N 59°01' E 010°52'815.6
2017-Nov-15 15:31N 59°01' E 010°37'816.3
2017-Nov-15 15:00N 59°01' E 010°21'713.3
2017-Nov-15 14:31N 59°06' E 010°14'1 2.6
2017-Nov-15 14:01N 59°08' E 010°14'0 0.0
2017-Nov-15 13:31N 59°08' E 010°14'5 9.2
2017-Nov-15 13:01N 59°03' E 010°15'713.4
2017-Nov-15 12:31N 59°01' E 010°28'715.0
2017-Nov-15 12:01N 59°01' E 010°42'714.7
2017-Nov-15 11:30N 59°00' E 010°56'714.9
2017-Nov-15 11:01N 58°56' E 011°08'1 2.3
2017-Nov-15 10:31N 58°56' E 011°10'0 0.1
2017-Nov-15 10:01N 58°56' E 011°10'612.2
2017-Nov-15 09:31N 58°59' E 010°60'815.1
2017-Nov-15 09:01N 59°02' E 010°46'715.0
2017-Nov-15 08:30N 59°00' E 010°32'715.0
2017-Nov-15 08:00N 59°01' E 010°17'612.1
2017-Nov-15 07:30N 59°07' E 010°14'0 0.7
2017-Nov-15 07:00N 59°08' E 010°14'1 2.5
2017-Nov-15 06:31N 59°06' E 010°14'0 0.4
2017-Nov-15 05:59N 59°06' E 010°14'0 0.0
2017-Nov-15 05:30N 59°06' E 010°14'0 0.0
2017-Nov-15 04:57N 59°06' E 010°14'0 0.0
2017-Nov-15 04:30N 59°06' E 010°14'0 0.0
2017-Nov-15 04:01N 59°06' E 010°14'0 0.0
2017-Nov-15 03:28N 59°06' E 010°14'0 0.0
2017-Nov-15 02:58N 59°06' E 010°14'0 0.0
2017-Nov-15 02:29N 59°06' E 010°14'0 0.0
2017-Nov-15 01:59N 59°06' E 010°14'0 0.0
2017-Nov-15 01:29N 59°06' E 010°14'0 0.0
2017-Nov-15 01:00N 59°06' E 010°14'0 0.0
2017-Nov-15 00:30N 59°06' E 010°14'0 0.0
2017-Nov-15 00:00N 59°06' E 010°14'0 0.0
2017-Nov-14 23:28N 59°06' E 010°14'0 0.0
2017-Nov-14 22:58N 59°06' E 010°14'0 0.0
2017-Nov-14 22:28N 59°06' E 010°14'0 0.0
2017-Nov-14 21:59N 59°06' E 010°14'0 0.0
2017-Nov-14 21:29N 59°06' E 010°14'0 0.0
2017-Nov-14 20:59N 59°06' E 010°14'0 0.7
2017-Nov-14 20:31N 59°06' E 010°14'1 2.2
2017-Nov-14 20:01N 59°08' E 010°14'3 5.6
2017-Nov-14 19:31N 59°05' E 010°15'713.5
2017-Nov-14 19:00N 59°01' E 010°25'816.2
2017-Nov-14 18:30N 59°01' E 010°41'815.9
2017-Nov-14 18:01N 59°00' E 010°56'815.4
2017-Nov-14 17:31N 58°56' E 011°08'1 1.9
2017-Nov-14 17:01N 58°56' E 011°10'4 7.8
2017-Nov-14 16:31N 58°57' E 011°03'714.4
2017-Nov-14 16:00N 59°01' E 010°51'714.0
2017-Nov-14 15:30N 59°01' E 010°37'815.4
2017-Nov-14 15:00N 59°01' E 010°23'612.9
2017-Nov-14 14:31N 59°06' E 010°14'2 3.9
2017-Nov-14 14:00N 59°08' E 010°14'0 0.0
2017-Nov-14 13:30N 59°08' E 010°14'510.1
2017-Nov-14 13:01N 59°03' E 010°15'714.0
2017-Nov-14 12:30N 59°01' E 010°28'715.0
2017-Nov-14 12:01N 59°02' E 010°43'815.1
2017-Nov-14 11:31N 59°00' E 010°57'714.6
2017-Nov-14 11:01N 58°56' E 011°08'1 1.9
2017-Nov-14 10:30N 58°56' E 011°10'0 0.3
2017-Nov-14 10:01N 58°56' E 011°10'612.7
2017-Nov-14 09:31N 58°59' E 010°59'714.3
2017-Nov-14 09:01N 59°02' E 010°46'714.7
2017-Nov-14 08:31N 59°01' E 010°32'714.6
2017-Nov-14 08:01N 59°01' E 010°18'612.5
2017-Nov-14 07:30N 59°07' E 010°14'0 0.6
2017-Nov-14 07:01N 59°08' E 010°14'1 2.6
2017-Nov-14 06:31N 59°06' E 010°14'0 0.3
2017-Nov-14 05:59N 59°06' E 010°14'0 0.0
2017-Nov-14 05:30N 59°06' E 010°14'0 0.0
2017-Nov-14 05:00N 59°06' E 010°14'0 0.0
2017-Nov-14 04:30N 59°06' E 010°14'0 0.0
2017-Nov-14 03:58N 59°06' E 010°14'0 0.0
2017-Nov-14 03:28N 59°06' E 010°14'0 0.0
2017-Nov-14 02:58N 59°06' E 010°14'0 0.0
2017-Nov-14 02:29N 59°06' E 010°14'0 0.0
2017-Nov-14 01:59N 59°06' E 010°14'0 0.0
2017-Nov-14 01:29N 59°06' E 010°14'0 0.0
2017-Nov-14 01:00N 59°06' E 010°14'0 0.0
2017-Nov-14 00:30N 59°06' E 010°14'0 0.0
2017-Nov-14 00:00N 59°06' E 010°14'0 0.0
2017-Nov-13 23:28N 59°06' E 010°14'0 0.0
2017-Nov-13 22:58N 59°06' E 010°14'0 0.0
2017-Nov-13 22:28N 59°06' E 010°14'0 0.0
2017-Nov-13 21:59N 59°06' E 010°14'  
Track history (hours):
 
Tides and Currents Weather Stations Pressure Air Temp Water Temp Dewpoint Dewpoint Depression Visibility Wind Speed Wind Dir Waves Ship Positions

DucheSS Of Scandinavia

Operator: DFDS A/S

Last reported at 2017-Nov-23 19:00 UTC. Time now 2017-Nov-23 20:55 UTC.
Position N 59°00' E 010°38'.

Length 134 m; draft 5.4 m.

Type: Passenger vessel. MMSI: 219002929.

Date/timePositionNaut miles runAvg speedWind from/ knotsBaromVisibWave heightAir tempDewpointWater temp
2017-Nov-23 19:00N 59°00' E 010°38'4 8.6
2017-Nov-23 18:30N 59°02' E 010°46'713.7
2017-Nov-23 18:01N 58°60' E 010°58'714.3
2017-Nov-23 17:31N 58°56' E 011°10'0 0.0
2017-Nov-23 17:00N 58°56' E 011°10'612.4
2017-Nov-23 16:31N 58°59' E 010°60'815.5
2017-Nov-23 16:01N 59°02' E 010°46'815.5
2017-Nov-23 15:30N 58°59' E 010°32'714.6
2017-Nov-23 15:00N 59°01' E 010°18'713.8
2017-Nov-23 14:31N 59°07' E 010°14'1 1.0
2017-Nov-23 14:01N 59°08' E 010°14'5 9.3
2017-Nov-23 13:31N 59°03' E 010°15'611.9
2017-Nov-23 13:00N 58°60' E 010°25'5 9.6
2017-Nov-23 12:30N 58°59' E 010°34'5 9.4
2017-Nov-23 12:00N 59°01' E 010°42'612.5
2017-Nov-23 11:30N 59°01' E 010°54'816.8
2017-Nov-23 11:01N 58°56' E 011°08'1 2.6
2017-Nov-23 10:31N 58°56' E 011°10'0 0.2
2017-Nov-23 10:01N 58°56' E 011°10'612.1
2017-Nov-23 09:31N 58°59' E 010°60'815.2
2017-Nov-23 09:00N 59°02' E 010°46'816.1
2017-Nov-23 08:31N 58°59' E 010°32'815.2
2017-Nov-23 08:01N 59°01' E 010°18'713.4
2017-Nov-23 07:30N 59°07' E 010°14'0 0.6
2017-Nov-23 07:01N 59°08' E 010°14'1 1.2
2017-Nov-23 06:31N 59°07' E 010°14'1 1.6
2017-Nov-23 05:58N 59°06' E 010°14'0 0.0
2017-Nov-23 05:29N 59°06' E 010°14'0 0.0
2017-Nov-23 04:59N 59°06' E 010°14'0 0.0
2017-Nov-23 04:29N 59°06' E 010°14'0 0.0
2017-Nov-23 04:00N 59°06' E 010°14'0 0.0
2017-Nov-23 03:30N 59°06' E 010°14'0 0.0
2017-Nov-23 03:00N 59°06' E 010°14'0 0.0
2017-Nov-23 02:28N 59°06' E 010°14'0 0.0
2017-Nov-23 01:58N 59°06' E 010°14'0 0.0
2017-Nov-23 01:28N 59°06' E 010°14'0 0.0
2017-Nov-23 00:59N 59°06' E 010°14'0 0.0
2017-Nov-23 00:29N 59°06' E 010°14'0 0.0
2017-Nov-22 23:59N 59°06' E 010°14'0 0.0
2017-Nov-22 23:30N 59°06' E 010°14'0 0.0
2017-Nov-22 23:00N 59°06' E 010°14'0 0.0
2017-Nov-22 22:30N 59°06' E 010°14'0 0.0
2017-Nov-22 21:58N 59°06' E 010°14'0 0.0
2017-Nov-22 21:28N 59°06' E 010°14'0 0.0
2017-Nov-22 20:58N 59°06' E 010°14'0 0.3
2017-Nov-22 20:31N 59°06' E 010°14'1 2.6
2017-Nov-22 20:01N 59°08' E 010°14'4 7.9
2017-Nov-22 19:31N 59°04' E 010°15'  
2017-Nov-20 00:29N 59°06' E 010°14'0 0.0
2017-Nov-20 00:00N 59°06' E 010°14'0 0.0
2017-Nov-19 23:30N 59°06' E 010°14'0 0.0
2017-Nov-19 23:00N 59°06' E 010°14'0 0.0
2017-Nov-19 22:28N 59°06' E 010°14'0 0.0
2017-Nov-19 21:58N 59°06' E 010°14'0 0.0
2017-Nov-19 21:28N 59°06' E 010°14'0 0.0
2017-Nov-19 21:00N 59°06' E 010°14'0 0.6
2017-Nov-19 20:31N 59°06' E 010°14'1 2.2
2017-Nov-19 20:01N 59°08' E 010°14'4 8.2
2017-Nov-19 19:31N 59°04' E 010°15'714.3
2017-Nov-19 19:01N 59°01' E 010°28'815.9
2017-Nov-19 18:31N 59°01' E 010°43'816.0
2017-Nov-19 18:01N 58°60' E 010°58'713.9
2017-Nov-19 17:30N 58°56' E 011°09'0 0.8
2017-Nov-19 17:01N 58°56' E 011°10'2 4.7
2017-Nov-19 16:31N 58°56' E 011°06'815.7
2017-Nov-19 16:00N 59°01' E 010°53'815.5
2017-Nov-19 15:31N 59°01' E 010°38'815.7
2017-Nov-19 15:01N 59°01' E 010°23'713.7
2017-Nov-19 14:30N 59°06' E 010°14'2 3.8
2017-Nov-19 14:01N 59°08' E 010°14'0 0.0
2017-Nov-19 13:30N 59°08' E 010°14'5 9.6
2017-Nov-19 13:01N 59°03' E 010°15'714.3
2017-Nov-19 12:31N 59°00' E 010°28'714.9
2017-Nov-19 12:01N 59°01' E 010°43'815.3
2017-Nov-19 11:31N 58°60' E 010°57'714.7
2017-Nov-19 11:01N 58°56' E 011°09'0 0.9
2017-Nov-19 10:30N 58°56' E 011°10'0 0.3
2017-Nov-19 10:01N 58°56' E 011°10'713.6
2017-Nov-19 09:31N 58°60' E 010°59'815.9
2017-Nov-19 09:01N 59°02' E 010°44'815.9
2017-Nov-19 08:31N 59°00' E 010°28'714.7
2017-Nov-19 08:01N 59°03' E 010°15'5 9.1
2017-Nov-19 07:30N 59°08' E 010°14'0 0.0
2017-Nov-19 07:01N 59°08' E 010°14'1 2.7
2017-Nov-19 06:31N 59°06' E 010°14'0 0.2
2017-Nov-19 06:00N 59°06' E 010°14'0 0.0
2017-Nov-19 05:30N 59°06' E 010°14'0 0.0
2017-Nov-19 05:00N 59°06' E 010°14'0 0.0
2017-Nov-19 04:28N 59°06' E 010°14'0 0.0
2017-Nov-19 03:58N 59°06' E 010°14'0 0.0
2017-Nov-19 03:28N 59°06' E 010°14'0 0.0
2017-Nov-19 02:59N 59°06' E 010°14'0 0.0
2017-Nov-19 02:29N 59°06' E 010°14'0 0.0
2017-Nov-19 01:59N 59°06' E 010°14'0 0.0
2017-Nov-19 01:30N 59°06' E 010°14'0 0.0
2017-Nov-19 01:00N 59°06' E 010°14'0 0.0
2017-Nov-19 00:30N 59°06' E 010°14'0 0.0
2017-Nov-18 23:58N 59°06' E 010°14'0 0.0
2017-Nov-18 23:28N 59°06' E 010°14'0 0.0
2017-Nov-18 22:58N 59°06' E 010°14'0 0.0
2017-Nov-18 22:29N 59°06' E 010°14'0 0.0
2017-Nov-18 21:59N 59°06' E 010°14'0 0.0
2017-Nov-18 21:29N 59°06' E 010°14'0 0.0
2017-Nov-18 21:00N 59°06' E 010°14'1 2.6
2017-Nov-18 20:30N 59°07' E 010°14'0 0.1
2017-Nov-18 20:01N 59°08' E 010°14'611.5
2017-Nov-18 19:31N 59°02' E 010°16'815.2
2017-Nov-18 19:00N 58°60' E 010°30'815.3
2017-Nov-18 18:30N 59°01' E 010°44'815.8
2017-Nov-18 18:01N 58°60' E 010°59'713.5
2017-Nov-18 17:31N 58°56' E 011°10'0 0.1
2017-Nov-18 17:01N 58°56' E 011°10'2 5.0
2017-Nov-18 16:30N 58°56' E 011°05'815.8
2017-Nov-18 16:00N 59°01' E 010°53'815.7
2017-Nov-18 15:31N 59°01' E 010°38'816.1
2017-Nov-18 15:01N 59°01' E 010°22'713.5
2017-Nov-18 14:30N 59°06' E 010°14'1 2.8
2017-Nov-18 14:01N 59°08' E 010°14'0 0.0
2017-Nov-18 13:30N 59°08' E 010°14'5 9.9
2017-Nov-18 13:01N 59°03' E 010°15'714.2
2017-Nov-18 12:31N 59°00' E 010°28'714.9
2017-Nov-18 12:01N 59°02' E 010°42'714.9
2017-Nov-18 11:31N 59°00' E 010°57'815.0
2017-Nov-18 11:01N 58°56' E 011°08'1 1.9
2017-Nov-18 10:31N 58°56' E 011°10'0 0.0
2017-Nov-18 10:01N 58°56' E 011°10'612.2
2017-Nov-18 09:31N 58°59' E 010°60'815.9
2017-Nov-18 09:00N 59°02' E 010°45'816.3
2017-Nov-18 08:30N 59°01' E 010°30'815.3
2017-Nov-18 08:01N 59°03' E 010°15'510.0
2017-Nov-18 07:30N 59°08' E 010°14'0 0.0
2017-Nov-18 07:01N 59°08' E 010°14'0 0.9
2017-Nov-18 06:30N 59°07' E 010°14'1 1.9
2017-Nov-18 05:59N 59°06' E 010°14'0 0.0
2017-Nov-18 05:29N 59°06' E 010°14'0 0.0
2017-Nov-18 05:00N 59°06' E 010°14'0 0.0
2017-Nov-18 04:30N 59°06' E 010°14'0 0.0
2017-Nov-18 04:00N 59°06' E 010°14'0 0.0
2017-Nov-18 03:28N 59°06' E 010°14'0 0.0
2017-Nov-18 02:58N 59°06' E 010°14'0 0.0
2017-Nov-18 02:29N 59°06' E 010°14'0 0.0
2017-Nov-18 01:59N 59°06' E 010°14'0 0.0
2017-Nov-18 01:29N 59°06' E 010°14'0 0.0
2017-Nov-18 01:00N 59°06' E 010°14'0 0.0
2017-Nov-18 00:30N 59°06' E 010°14'0 0.0
2017-Nov-18 00:00N 59°06' E 010°14'0 0.0
2017-Nov-17 23:30N 59°06' E 010°14'0 0.0
2017-Nov-17 22:58N 59°06' E 010°14'0 0.0
2017-Nov-17 22:28N 59°06' E 010°14'0 0.0
2017-Nov-17 22:00N 59°06' E 010°14'0 0.0
2017-Nov-17 21:31N 59°06' E 010°14'0 0.0
2017-Nov-17 21:01N 59°06' E 010°14'1 2.9
2017-Nov-17 20:31N 59°08' E 010°14'3 5.9
2017-Nov-17 20:01N 59°05' E 010°15'713.6
2017-Nov-17 19:30N 58°60' E 010°24'510.3
2017-Nov-17 19:00N 58°59' E 010°34'510.7
2017-Nov-17 18:31N 59°01' E 010°44'713.5
2017-Nov-17 18:01N 59°00' E 010°57'815.2
2017-Nov-17 17:31N 58°56' E 011°09'1 1.7
2017-Nov-17 17:01N 58°56' E 011°10'4 7.4
2017-Nov-17 16:30N 58°57' E 011°03'816.5
2017-Nov-17 16:01N 59°01' E 010°50'816.0
2017-Nov-17 15:31N 58°59' E 010°35'816.5
2017-Nov-17 15:00N 59°01' E 010°19'713.9
2017-Nov-17 14:30N 59°07' E 010°14'0 0.9
2017-Nov-17 14:00N 59°08' E 010°14'2 3.5
2017-Nov-17 13:31N 59°06' E 010°14'713.9
2017-Nov-17 13:00N 59°00' E 010°22'611.7
2017-Nov-17 12:30N 58°60' E 010°33'611.1
2017-Nov-17 12:01N 59°01' E 010°44'713.3
2017-Nov-17 11:31N 59°00' E 010°56'815.8
2017-Nov-17 11:01N 58°56' E 011°09'1 1.6
2017-Nov-17 10:30N 58°56' E 011°10'0 0.0
2017-Nov-17 10:01N 58°56' E 011°10'510.0
2017-Nov-17 09:31N 58°58' E 011°02'815.9
2017-Nov-17 09:01N 59°02' E 010°48'816.3
2017-Nov-17 08:30N 59°00' E 010°32'816.2
2017-Nov-17 08:01N 59°01' E 010°17'612.3
2017-Nov-17 07:30N 59°07' E 010°14'0 0.2
2017-Nov-17 07:01N 59°08' E 010°14'1 2.6
2017-Nov-17 06:30N 59°06' E 010°14'0 0.3
2017-Nov-17 06:00N 59°06' E 010°14'0 0.0
2017-Nov-17 05:28N 59°06' E 010°14'0 0.0
2017-Nov-17 04:58N 59°06' E 010°14'0 0.0
2017-Nov-17 04:28N 59°06' E 010°14'0 0.0
2017-Nov-17 03:59N 59°06' E 010°14'0 0.0
2017-Nov-17 03:29N 59°06' E 010°14'0 0.0
2017-Nov-17 02:59N 59°06' E 010°14'0 0.0
2017-Nov-17 02:30N 59°06' E 010°14'0 0.0
2017-Nov-17 02:00N 59°06' E 010°14'0 0.0
2017-Nov-17 01:30N 59°06' E 010°14'0 0.0
2017-Nov-17 00:58N 59°06' E 010°14'0 0.0
2017-Nov-17 00:28N 59°06' E 010°14'0 0.0
2017-Nov-16 23:58N 59°06' E 010°14'0 0.0
2017-Nov-16 23:29N 59°06' E 010°14'0 0.0
2017-Nov-16 22:59N 59°06' E 010°14'0 0.0
2017-Nov-16 22:29N 59°06' E 010°14'0 0.0
2017-Nov-16 22:00N 59°06' E 010°14'0 0.0
2017-Nov-16 21:30N 59°06' E 010°14'0 0.0
2017-Nov-16 21:00N 59°06' E 010°14'1 2.9
2017-Nov-16 20:30N 59°08' E 010°14'1 1.7
2017-Nov-16 20:01N 59°07' E 010°14'713.7
2017-Nov-16 19:31N 59°00' E 010°19'612.9
2017-Nov-16 19:01N 58°59' E 010°31'612.2
2017-Nov-16 18:31N 59°01' E 010°42'714.8
2017-Nov-16 18:01N 59°00' E 010°57'815.3
2017-Nov-16 17:31N 58°56' E 011°09'1 1.5
2017-Nov-16 17:01N 58°56' E 011°10'2 4.7
2017-Nov-16 16:31N 58°56' E 011°06'714.0
2017-Nov-16 16:01N 59°00' E 010°55'815.9
2017-Nov-16 15:30N 59°01' E 010°39'917.1
2017-Nov-16 15:01N 59°01' E 010°23'713.5
2017-Nov-16 14:30N 59°06' E 010°14'2 3.4
2017-Nov-16 14:01N 59°08' E 010°14'0 0.0
2017-Nov-16 13:30N 59°08' E 010°14'510.7
2017-Nov-16 13:01N 59°02' E 010°15'714.6
2017-Nov-16 12:30N 59°01' E 010°29'714.4
2017-Nov-16 12:01N 59°02' E 010°43'714.5
2017-Nov-16 11:30N 59°00' E 010°57'815.3
2017-Nov-16 11:01N 58°56' E 011°09'0 0.9
2017-Nov-16 10:31N 58°56' E 011°10'0 0.0
2017-Nov-16 10:01N 58°56' E 011°10'510.9
2017-Nov-16 09:30N 58°59' E 011°01'714.6
2017-Nov-16 09:01N 59°02' E 010°48'815.3
2017-Nov-16 08:31N 59°01' E 010°33'815.1
2017-Nov-16 08:01N 59°01' E 010°19'612.7
2017-Nov-16 07:30N 59°07' E 010°14'1 1.1
2017-Nov-16 07:01N 59°08' E 010°14'1 1.9
2017-Nov-16 06:30N 59°07' E 010°14'1 1.0
2017-Nov-16 05:59N 59°06' E 010°14'0 0.0
2017-Nov-16 05:30N 59°06' E 010°14'0 0.0
2017-Nov-16 05:00N 59°06' E 010°14'0 0.0
2017-Nov-16 04:30N 59°06' E 010°14'0 0.0
2017-Nov-16 03:58N 59°06' E 010°14'0 0.0
2017-Nov-16 03:28N 59°06' E 010°14'0 0.0
2017-Nov-16 02:58N 59°06' E 010°14'0 0.0
2017-Nov-16 02:29N 59°06' E 010°14'0 0.0
2017-Nov-16 01:59N 59°06' E 010°14'0 0.0
2017-Nov-16 01:29N 59°06' E 010°14'0 0.0
2017-Nov-16 01:00N 59°06' E 010°14'0 0.0
2017-Nov-16 00:30N 59°06' E 010°14'0 0.0
2017-Nov-16 00:00N 59°06' E 010°14'0 0.0
2017-Nov-15 23:31N 59°06' E 010°14'0 0.0
2017-Nov-15 23:00N 59°06' E 010°14'0 0.0
2017-Nov-15 22:31N 59°06' E 010°14'0 0.0
2017-Nov-15 22:01N 59°06' E 010°14'0 0.0
2017-Nov-15 21:31N 59°06' E 010°14'0 0.0
2017-Nov-15 21:01N 59°06' E 010°14'0 0.0
2017-Nov-15 20:30N 59°06' E 010°14'1 2.8
2017-Nov-15 20:00N 59°08' E 010°14'4 7.9
2017-Nov-15 19:30N 59°04' E 010°15'714.3
2017-Nov-15 19:01N 59°01' E 010°28'816.0
2017-Nov-15 18:30N 59°01' E 010°43'815.2
2017-Nov-15 18:01N 59°00' E 010°57'714.5
2017-Nov-15 17:31N 58°56' E 011°09'1 1.6
2017-Nov-15 17:01N 58°56' E 011°10'3 5.3
2017-Nov-15 16:31N 58°56' E 011°05'815.9
2017-Nov-15 16:01N 59°01' E 010°52'815.6
2017-Nov-15 15:31N 59°01' E 010°37'816.3
2017-Nov-15 15:00N 59°01' E 010°21'713.3
2017-Nov-15 14:31N 59°06' E 010°14'1 2.6
2017-Nov-15 14:01N 59°08' E 010°14'0 0.0
2017-Nov-15 13:31N 59°08' E 010°14'5 9.2
2017-Nov-15 13:01N 59°03' E 010°15'713.4
2017-Nov-15 12:31N 59°01' E 010°28'715.0
2017-Nov-15 12:01N 59°01' E 010°42'714.7
2017-Nov-15 11:30N 59°00' E 010°56'714.9
2017-Nov-15 11:01N 58°56' E 011°08'1 2.3
2017-Nov-15 10:31N 58°56' E 011°10'0 0.1
2017-Nov-15 10:01N 58°56' E 011°10'612.2
2017-Nov-15 09:31N 58°59' E 010°60'815.1
2017-Nov-15 09:01N 59°02' E 010°46'715.0
2017-Nov-15 08:30N 59°00' E 010°32'715.0
2017-Nov-15 08:00N 59°01' E 010°17'612.1
2017-Nov-15 07:30N 59°07' E 010°14'0 0.7
2017-Nov-15 07:00N 59°08' E 010°14'1 2.5
2017-Nov-15 06:31N 59°06' E 010°14'0 0.4
2017-Nov-15 05:59N 59°06' E 010°14'0 0.0
2017-Nov-15 05:30N 59°06' E 010°14'0 0.0
2017-Nov-15 04:57N 59°06' E 010°14'0 0.0
2017-Nov-15 04:30N 59°06' E 010°14'0 0.0
2017-Nov-15 04:01N 59°06' E 010°14'0 0.0
2017-Nov-15 03:28N 59°06' E 010°14'0 0.0
2017-Nov-15 02:58N 59°06' E 010°14'0 0.0
2017-Nov-15 02:29N 59°06' E 010°14'0 0.0
2017-Nov-15 01:59N 59°06' E 010°14'0 0.0
2017-Nov-15 01:29N 59°06' E 010°14'0 0.0
2017-Nov-15 01:00N 59°06' E 010°14'0 0.0
2017-Nov-15 00:30N 59°06' E 010°14'0 0.0
2017-Nov-15 00:00N 59°06' E 010°14'0 0.0
2017-Nov-14 23:28N 59°06' E 010°14'0 0.0
2017-Nov-14 22:58N 59°06' E 010°14'0 0.0
2017-Nov-14 22:28N 59°06' E 010°14'0 0.0
2017-Nov-14 21:59N 59°06' E 010°14'0 0.0
2017-Nov-14 21:29N 59°06' E 010°14'0 0.0
2017-Nov-14 20:59N 59°06' E 010°14'0 0.7
2017-Nov-14 20:31N 59°06' E 010°14'1 2.2
2017-Nov-14 20:01N 59°08' E 010°14'3 5.6
2017-Nov-14 19:31N 59°05' E 010°15'713.5
2017-Nov-14 19:00N 59°01' E 010°25'816.2
2017-Nov-14 18:30N 59°01' E 010°41'815.9
2017-Nov-14 18:01N 59°00' E 010°56'815.4
2017-Nov-14 17:31N 58°56' E 011°08'1 1.9
2017-Nov-14 17:01N 58°56' E 011°10'4 7.8
2017-Nov-14 16:31N 58°57' E 011°03'714.4
2017-Nov-14 16:00N 59°01' E 010°51'714.0
2017-Nov-14 15:30N 59°01' E 010°37'815.4
2017-Nov-14 15:00N 59°01' E 010°23'612.9
2017-Nov-14 14:31N 59°06' E 010°14'2 3.9
2017-Nov-14 14:00N 59°08' E 010°14'0 0.0
2017-Nov-14 13:30N 59°08' E 010°14'510.1
2017-Nov-14 13:01N 59°03' E 010°15'714.0
2017-Nov-14 12:30N 59°01' E 010°28'715.0
2017-Nov-14 12:01N 59°02' E 010°43'815.1
2017-Nov-14 11:31N 59°00' E 010°57'714.6
2017-Nov-14 11:01N 58°56' E 011°08'1 1.9
2017-Nov-14 10:30N 58°56' E 011°10'0 0.3
2017-Nov-14 10:01N 58°56' E 011°10'612.7
2017-Nov-14 09:31N 58°59' E 010°59'714.3
2017-Nov-14 09:01N 59°02' E 010°46'714.7
2017-Nov-14 08:31N 59°01' E 010°32'714.6
2017-Nov-14 08:01N 59°01' E 010°18'612.5
2017-Nov-14 07:30N 59°07' E 010°14'0 0.6
2017-Nov-14 07:01N 59°08' E 010°14'1 2.6
2017-Nov-14 06:31N 59°06' E 010°14'0 0.3
2017-Nov-14 05:59N 59°06' E 010°14'0 0.0
2017-Nov-14 05:30N 59°06' E 010°14'0 0.0
2017-Nov-14 05:00N 59°06' E 010°14'0 0.0
2017-Nov-14 04:30N 59°06' E 010°14'0 0.0
2017-Nov-14 03:58N 59°06' E 010°14'0 0.0
2017-Nov-14 03:28N 59°06' E 010°14'0 0.0
2017-Nov-14 02:58N 59°06' E 010°14'0 0.0
2017-Nov-14 02:29N 59°06' E 010°14'0 0.0
2017-Nov-14 01:59N 59°06' E 010°14'0 0.0
2017-Nov-14 01:29N 59°06' E 010°14'0 0.0
2017-Nov-14 01:00N 59°06' E 010°14'0 0.0
2017-Nov-14 00:30N 59°06' E 010°14'0 0.0
2017-Nov-14 00:00N 59°06' E 010°14'0 0.0
2017-Nov-13 23:28N 59°06' E 010°14'0 0.0
2017-Nov-13 22:58N 59°06' E 010°14'0 0.0
2017-Nov-13 22:28N 59°06' E 010°14'0 0.0
2017-Nov-13 21:59N 59°06' E 010°14'  

Dump ship's entire track history